Year,Month,Day,Hour,Minute,Value (Times are PST for windspeed in km/hr)
2010,04,02,00,00,12.40
2010,04,02,00,01,14.80
2010,04,02,00,02,7.80
2010,04,02,00,03,9.70
2010,04,02,00,04,9.50
2010,04,02,00,05,10.10
2010,04,02,00,06,9.70
2010,04,02,00,07,18.80
2010,04,02,00,08,16.80
2010,04,02,00,09,22.00
2010,04,02,00,10,16.60
2010,04,02,00,11,15.10
2010,04,02,00,12,14.10
2010,04,02,00,13,13.80
2010,04,02,00,14,11.10
2010,04,02,00,15,13.70
2010,04,02,00,16,11.40
2010,04,02,00,17,10.50
2010,04,02,00,18,15.50
2010,04,02,00,19,14.20
2010,04,02,00,20,14.40
2010,04,02,00,21,15.10
2010,04,02,00,22,12.20
2010,04,02,00,23,12.40
2010,04,02,00,24,11.30
2010,04,02,00,25,12.20
2010,04,02,00,26,14.20
2010,04,02,00,27,15.50
2010,04,02,00,28,11.40
2010,04,02,00,29,14.30
2010,04,02,00,30,13.80
2010,04,02,00,31,14.00
2010,04,02,00,32,14.20
2010,04,02,00,33,18.50
2010,04,02,00,34,16.50
2010,04,02,00,35,16.90
2010,04,02,00,36,13.10
2010,04,02,00,37,11.00
2010,04,02,00,38,8.50
2010,04,02,00,39,12.60
2010,04,02,00,40,19.70
2010,04,02,00,41,20.90
2010,04,02,00,42,16.20
2010,04,02,00,43,9.50
2010,04,02,00,44,14.80
2010,04,02,00,45,18.20
2010,04,02,00,46,16.40
2010,04,02,00,47,19.50
2010,04,02,00,48,18.00
2010,04,02,00,49,10.20
2010,04,02,00,50,10.00
2010,04,02,00,51,9.50
2010,04,02,00,52,12.90
2010,04,02,00,53,13.10
2010,04,02,00,54,14.80
2010,04,02,00,55,14.10
2010,04,02,00,56,16.80
2010,04,02,00,57,9.30
2010,04,02,00,58,14.20
2010,04,02,00,59,11.70
2010,04,02,01,00,15.70
2010,04,02,01,01,13.90
2010,04,02,01,02,19.90
2010,04,02,01,03,13.20
2010,04,02,01,04,16.00
2010,04,02,01,05,14.30
2010,04,02,01,06,3.60
2010,04,02,01,07,13.70
2010,04,02,01,08,12.30
2010,04,02,01,09,16.10
2010,04,02,01,10,16.10
2010,04,02,01,11,10.40
2010,04,02,01,12,8.00
2010,04,02,01,13,18.90
2010,04,02,01,14,20.90
2010,04,02,01,15,15.10
2010,04,02,01,16,17.10
2010,04,02,01,17,14.60
2010,04,02,01,18,16.70
2010,04,02,01,19,11.00
2010,04,02,01,20,14.10
2010,04,02,01,21,11.70
2010,04,02,01,22,15.70
2010,04,02,01,23,15.70
2010,04,02,01,24,18.50
2010,04,02,01,25,15.20
2010,04,02,01,26,13.90
2010,04,02,01,27,12.60
2010,04,02,01,28,16.60
2010,04,02,01,29,16.30
2010,04,02,01,30,9.20
2010,04,02,01,31,10.90
2010,04,02,01,32,14.60
2010,04,02,01,33,18.20
2010,04,02,01,34,18.40
2010,04,02,01,35,20.30
2010,04,02,01,36,23.50
2010,04,02,01,37,12.40
2010,04,02,01,38,13.00
2010,04,02,01,39,13.00
2010,04,02,01,40,9.80
2010,04,02,01,41,11.70
2010,04,02,01,42,11.10
2010,04,02,01,43,11.90
2010,04,02,01,44,15.50
2010,04,02,01,45,13.70
2010,04,02,01,46,12.70
2010,04,02,01,47,13.60
2010,04,02,01,48,15.90
2010,04,02,01,49,13.90
2010,04,02,01,50,16.30
2010,04,02,01,51,24.20
2010,04,02,01,52,23.50
2010,04,02,01,53,19.40
2010,04,02,01,54,23.50
2010,04,02,01,55,17.60
2010,04,02,01,56,11.90
2010,04,02,01,57,10.60
2010,04,02,01,58,9.40
2010,04,02,01,59,9.70
2010,04,02,02,00,12.80
2010,04,02,02,01,9.70
2010,04,02,02,02,9.80
2010,04,02,02,03,7.90
2010,04,02,02,04,8.60
2010,04,02,02,05,17.10
2010,04,02,02,06,11.40
2010,04,02,02,07,10.80
2010,04,02,02,08,14.40
2010,04,02,02,09,17.50
2010,04,02,02,10,9.70
2010,04,02,02,11,16.30
2010,04,02,02,12,16.10
2010,04,02,02,13,16.50
2010,04,02,02,14,10.10
2010,04,02,02,15,15.60
2010,04,02,02,16,20.00
2010,04,02,02,17,19.40
2010,04,02,02,18,25.70
2010,04,02,02,19,18.30
2010,04,02,02,20,13.60
2010,04,02,02,21,19.90
2010,04,02,02,22,19.70
2010,04,02,02,23,22.70
2010,04,02,02,24,17.00
2010,04,02,02,25,16.00
2010,04,02,02,26,13.70
2010,04,02,02,27,6.20
2010,04,02,02,28,16.60
2010,04,02,02,29,16.50
2010,04,02,02,30,9.10
2010,04,02,02,31,12.60
2010,04,02,02,32,17.00
2010,04,02,02,33,12.70
2010,04,02,02,34,21.70
2010,04,02,02,35,23.10
2010,04,02,02,36,13.00
2010,04,02,02,37,14.50
2010,04,02,02,38,15.40
2010,04,02,02,39,12.30
2010,04,02,02,40,13.60
2010,04,02,02,41,12.90
2010,04,02,02,42,17.20
2010,04,02,02,43,16.30
2010,04,02,02,44,7.60
2010,04,02,02,45,15.90
2010,04,02,02,46,16.20
2010,04,02,02,47,15.80
2010,04,02,02,48,16.30
2010,04,02,02,49,17.10
2010,04,02,02,50,14.50
2010,04,02,02,51,14.50
2010,04,02,02,52,7.70
2010,04,02,02,53,13.40
2010,04,02,02,54,15.70
2010,04,02,02,55,12.80
2010,04,02,02,56,15.70
2010,04,02,02,57,15.40
2010,04,02,02,58,14.40
2010,04,02,02,59,9.40
2010,04,02,03,00,8.80
2010,04,02,03,01,13.20
2010,04,02,03,02,14.00
2010,04,02,03,03,16.40
2010,04,02,03,04,10.60
2010,04,02,03,05,18.70
2010,04,02,03,06,13.50
2010,04,02,03,07,12.00
2010,04,02,03,08,16.10
2010,04,02,03,09,15.20
2010,04,02,03,10,12.40
2010,04,02,03,11,7.20
2010,04,02,03,12,14.10
2010,04,02,03,13,8.20
2010,04,02,03,14,16.90
2010,04,02,03,15,10.70
2010,04,02,03,16,10.20
2010,04,02,03,17,14.10
2010,04,02,03,18,12.00
2010,04,02,03,19,13.00
2010,04,02,03,20,12.80
2010,04,02,03,21,11.10
2010,04,02,03,22,12.40
2010,04,02,03,23,10.90
2010,04,02,03,24,14.40
2010,04,02,03,25,8.60
2010,04,02,03,26,8.80
2010,04,02,03,27,9.80
2010,04,02,03,28,13.60
2010,04,02,03,29,7.40
2010,04,02,03,30,9.30
2010,04,02,03,31,7.60
2010,04,02,03,32,12.40
2010,04,02,03,33,16.60
2010,04,02,03,34,6.80
2010,04,02,03,35,7.40
2010,04,02,03,36,15.30
2010,04,02,03,37,6.90
2010,04,02,03,38,6.30
2010,04,02,03,39,5.50
2010,04,02,03,40,2.70
2010,04,02,03,41,1.40
2010,04,02,03,42,0.80
2010,04,02,03,43,1.90
2010,04,02,03,44,9.00
2010,04,02,03,45,8.80
2010,04,02,03,46,7.70
2010,04,02,03,47,4.40
2010,04,02,03,48,5.20
2010,04,02,03,49,1.50
2010,04,02,03,50,1.60
2010,04,02,03,51,1.60
2010,04,02,03,52,4.40
2010,04,02,03,53,3.10
2010,04,02,03,54,1.40
2010,04,02,03,55,0.30
2010,04,02,03,56,3.40
2010,04,02,03,57,0.00
2010,04,02,03,58,2.30
2010,04,02,03,59,0.00
2010,04,02,04,00,0.00
2010,04,02,04,01,0.00
2010,04,02,04,02,0.00
2010,04,02,04,03,0.10
2010,04,02,04,04,0.80
2010,04,02,04,05,0.10
2010,04,02,04,06,0.20
2010,04,02,04,07,0.00
2010,04,02,04,08,1.10
2010,04,02,04,09,2.10
2010,04,02,04,10,0.20
2010,04,02,04,11,2.40
2010,04,02,04,12,2.90
2010,04,02,04,13,2.70
2010,04,02,04,14,1.50
2010,04,02,04,15,1.30
2010,04,02,04,16,3.60
2010,04,02,04,17,5.10
2010,04,02,04,18,3.70
2010,04,02,04,19,2.50
2010,04,02,04,20,4.80
2010,04,02,04,21,5.30
2010,04,02,04,22,5.50
2010,04,02,04,23,1.90
2010,04,02,04,24,4.00
2010,04,02,04,25,4.90
2010,04,02,04,26,3.90
2010,04,02,04,27,4.40
2010,04,02,04,28,2.90
2010,04,02,04,29,0.80
2010,04,02,04,30,1.90
2010,04,02,04,31,6.00
2010,04,02,04,32,3.10
2010,04,02,04,33,4.30
2010,04,02,04,34,4.20
2010,04,02,04,35,5.90
2010,04,02,04,36,3.70
2010,04,02,04,37,1.30
2010,04,02,04,38,2.90
2010,04,02,04,39,1.90
2010,04,02,04,40,7.30
2010,04,02,04,41,12.10
2010,04,02,04,42,14.90
2010,04,02,04,43,19.10
2010,04,02,04,44,22.30
2010,04,02,04,45,26.70
2010,04,02,04,46,22.50
2010,04,02,04,47,18.50
2010,04,02,04,48,15.20
2010,04,02,04,49,15.00
2010,04,02,04,50,16.90
2010,04,02,04,51,18.10
2010,04,02,04,52,14.80
2010,04,02,04,53,23.10
2010,04,02,04,54,22.20
2010,04,02,04,55,20.90
2010,04,02,04,56,14.60
2010,04,02,04,57,26.40
2010,04,02,04,58,15.40
2010,04,02,04,59,20.00
2010,04,02,05,00,27.80
2010,04,02,05,01,23.10
2010,04,02,05,02,21.60
2010,04,02,05,03,17.50
2010,04,02,05,04,21.00
2010,04,02,05,05,14.70
2010,04,02,05,06,21.30
2010,04,02,05,07,20.20
2010,04,02,05,08,22.70
2010,04,02,05,09,25.70
2010,04,02,05,10,25.80
2010,04,02,05,11,25.20
2010,04,02,05,12,20.90
2010,04,02,05,13,18.90
2010,04,02,05,14,24.00
2010,04,02,05,15,21.70
2010,04,02,05,16,22.40
2010,04,02,05,17,26.70
2010,04,02,05,18,23.50
2010,04,02,05,19,25.30
2010,04,02,05,20,24.70
2010,04,02,05,21,24.40
2010,04,02,05,22,25.00
2010,04,02,05,23,26.60
2010,04,02,05,24,21.10
2010,04,02,05,25,17.90
2010,04,02,05,26,17.00
2010,04,02,05,27,28.20
2010,04,02,05,28,22.40
2010,04,02,05,29,23.70
2010,04,02,05,30,16.90
2010,04,02,05,31,23.00
2010,04,02,05,32,20.30
2010,04,02,05,33,17.90
2010,04,02,05,34,12.10
2010,04,02,05,35,12.90
2010,04,02,05,36,14.70
2010,04,02,05,37,22.00
2010,04,02,05,38,14.30
2010,04,02,05,39,14.30
2010,04,02,05,40,24.70
2010,04,02,05,41,23.40
2010,04,02,05,42,14.70
2010,04,02,05,43,13.40
2010,04,02,05,44,16.10
2010,04,02,05,45,19.10
2010,04,02,05,46,17.90
2010,04,02,05,47,28.80
2010,04,02,05,48,28.80
2010,04,02,05,49,23.80
2010,04,02,05,50,16.80
2010,04,02,05,51,19.10
2010,04,02,05,52,25.20
2010,04,02,05,53,27.50
2010,04,02,05,54,26.30
2010,04,02,05,55,23.60
2010,04,02,05,56,28.60
2010,04,02,05,57,29.60
2010,04,02,05,58,29.60
2010,04,02,05,59,19.00
2010,04,02,06,00,38.40
2010,04,02,06,01,19.40
2010,04,02,06,02,19.60
2010,04,02,06,03,21.60
2010,04,02,06,04,19.80
2010,04,02,06,05,25.70
2010,04,02,06,06,36.30
2010,04,02,06,07,27.40
2010,04,02,06,08,28.20
2010,04,02,06,09,18.20
2010,04,02,06,10,33.30
2010,04,02,06,11,20.40
2010,04,02,06,12,28.00
2010,04,02,06,13,27.10
2010,04,02,06,14,15.50
2010,04,02,06,15,23.60
2010,04,02,06,16,40.50
2010,04,02,06,17,29.90
2010,04,02,06,18,18.50
2010,04,02,06,19,18.60
2010,04,02,06,20,21.50
2010,04,02,06,21,27.60
2010,04,02,06,22,36.30
2010,04,02,06,23,21.20
2010,04,02,06,24,23.00
2010,04,02,06,25,36.50
2010,04,02,06,26,31.80
2010,04,02,06,27,27.80
2010,04,02,06,28,27.80
2010,04,02,06,29,32.90
2010,04,02,06,30,31.70
2010,04,02,06,31,22.00
2010,04,02,06,32,23.90
2010,04,02,06,33,34.40
2010,04,02,06,34,37.60
2010,04,02,06,35,26.20
2010,04,02,06,36,32.40
2010,04,02,06,37,43.20
2010,04,02,06,38,28.50
2010,04,02,06,39,37.70
2010,04,02,06,40,29.90
2010,04,02,06,41,30.70
2010,04,02,06,42,32.90
2010,04,02,06,43,22.20
2010,04,02,06,44,26.90
2010,04,02,06,45,23.50
2010,04,02,06,46,30.30
2010,04,02,06,47,35.50
2010,04,02,06,48,27.30
2010,04,02,06,49,40.10
2010,04,02,06,50,37.40
2010,04,02,06,51,22.70
2010,04,02,06,52,29.90
2010,04,02,06,53,31.60
2010,04,02,06,54,38.10
2010,04,02,06,55,34.20
2010,04,02,06,56,30.70
2010,04,02,06,57,30.00
2010,04,02,06,58,41.20
2010,04,02,06,59,18.70
2010,04,02,07,00,30.40
2010,04,02,07,01,31.50
2010,04,02,07,02,37.20
2010,04,02,07,03,35.80
2010,04,02,07,04,33.40
2010,04,02,07,05,33.10
2010,04,02,07,06,37.20
2010,04,02,07,07,28.90
2010,04,02,07,08,41.00
2010,04,02,07,09,36.20
2010,04,02,07,10,32.30
2010,04,02,07,11,32.30
2010,04,02,07,12,35.50
2010,04,02,07,13,30.00
2010,04,02,07,14,16.60
2010,04,02,07,15,24.80
2010,04,02,07,16,29.50
2010,04,02,07,17,22.90
2010,04,02,07,18,26.60
2010,04,02,07,19,23.30
2010,04,02,07,20,18.90
2010,04,02,07,21,28.30
2010,04,02,07,22,38.70
2010,04,02,07,23,36.30
2010,04,02,07,24,30.50
2010,04,02,07,25,34.50
2010,04,02,07,26,26.20
2010,04,02,07,27,24.50
2010,04,02,07,28,35.90
2010,04,02,07,29,29.50
2010,04,02,07,30,32.10
2010,04,02,07,31,28.10
2010,04,02,07,32,28.10
2010,04,02,07,33,32.10
2010,04,02,07,34,26.80
2010,04,02,07,35,28.80
2010,04,02,07,36,32.70
2010,04,02,07,37,31.70
2010,04,02,07,38,31.50
2010,04,02,07,39,21.80
2010,04,02,07,40,27.40
2010,04,02,07,41,29.90
2010,04,02,07,42,25.20
2010,04,02,07,43,34.60
2010,04,02,07,44,30.90
2010,04,02,07,45,28.20
2010,04,02,07,46,26.20
2010,04,02,07,47,27.90
2010,04,02,07,48,27.80
2010,04,02,07,49,29.50
2010,04,02,07,50,28.50
2010,04,02,07,51,24.10
2010,04,02,07,52,20.60
2010,04,02,07,53,27.30
2010,04,02,07,54,31.00
2010,04,02,07,55,34.20
2010,04,02,07,56,24.60
2010,04,02,07,57,19.40
2010,04,02,07,58,17.50
2010,04,02,07,59,13.90
2010,04,02,08,00,25.80
2010,04,02,08,01,18.50
2010,04,02,08,02,34.20
2010,04,02,08,03,24.50
2010,04,02,08,04,31.90
2010,04,02,08,05,21.10
2010,04,02,08,06,19.10
2010,04,02,08,07,25.10
2010,04,02,08,08,32.10
2010,04,02,08,09,27.10
2010,04,02,08,10,28.50
2010,04,02,08,11,24.50
2010,04,02,08,12,23.00
2010,04,02,08,13,27.50
2010,04,02,08,14,35.20
2010,04,02,08,15,22.60
2010,04,02,08,16,21.80
2010,04,02,08,17,32.10
2010,04,02,08,18,28.60
2010,04,02,08,19,25.30
2010,04,02,08,20,20.40
2010,04,02,08,21,22.50
2010,04,02,08,22,29.00
2010,04,02,08,23,32.80
2010,04,02,08,24,27.80
2010,04,02,08,25,35.70
2010,04,02,08,26,27.80
2010,04,02,08,27,22.80
2010,04,02,08,28,20.30
2010,04,02,08,29,18.20
2010,04,02,08,30,15.60
2010,04,02,08,31,22.60
2010,04,02,08,32,21.80
2010,04,02,08,33,25.40
2010,04,02,08,34,24.00
2010,04,02,08,35,24.80
2010,04,02,08,36,23.50
2010,04,02,08,37,28.60
2010,04,02,08,38,21.80
2010,04,02,08,39,18.70
2010,04,02,08,40,17.10
2010,04,02,08,41,13.30
2010,04,02,08,42,31.50
2010,04,02,08,43,32.10
2010,04,02,08,44,31.40
2010,04,02,08,45,28.50
2010,04,02,08,46,21.10
2010,04,02,08,47,21.70
2010,04,02,08,48,15.00
2010,04,02,08,49,22.90
2010,04,02,08,50,24.60
2010,04,02,08,51,35.20
2010,04,02,08,52,27.20
2010,04,02,08,53,35.80
2010,04,02,08,54,28.50
2010,04,02,08,55,38.80
2010,04,02,08,56,21.80
2010,04,02,08,57,29.70
2010,04,02,08,58,27.70
2010,04,02,08,59,28.80
2010,04,02,09,00,29.50
2010,04,02,09,01,31.00
2010,04,02,09,02,25.90
2010,04,02,09,03,25.10
2010,04,02,09,04,37.70
2010,04,02,09,05,35.70
2010,04,02,09,06,31.90
2010,04,02,09,07,23.50
2010,04,02,09,08,35.10
2010,04,02,09,09,34.60
2010,04,02,09,10,34.00
2010,04,02,09,11,33.10
2010,04,02,09,12,29.30
2010,04,02,09,13,27.00
2010,04,02,09,14,27.40
2010,04,02,09,15,29.40
2010,04,02,09,16,31.70
2010,04,02,09,17,23.50
2010,04,02,09,18,34.30
2010,04,02,09,19,21.90
2010,04,02,09,20,30.70
2010,04,02,09,21,28.20
2010,04,02,09,22,30.80
2010,04,02,09,23,32.80
2010,04,02,09,24,30.60
2010,04,02,09,25,36.20
2010,04,02,09,26,32.00
2010,04,02,09,27,17.90
2010,04,02,09,28,25.80
2010,04,02,09,29,23.00
2010,04,02,09,30,21.40
2010,04,02,09,31,21.30
2010,04,02,09,32,19.70
2010,04,02,09,33,17.90
2010,04,02,09,34,17.20
2010,04,02,09,35,27.00
2010,04,02,09,36,23.90
2010,04,02,09,37,31.50
2010,04,02,09,38,28.20
2010,04,02,09,39,37.90
2010,04,02,09,40,27.60
2010,04,02,09,41,33.20
2010,04,02,09,42,18.70
2010,04,02,09,43,40.10
2010,04,02,09,44,36.00
2010,04,02,09,45,27.30
2010,04,02,09,46,27.90
2010,04,02,09,47,37.80
2010,04,02,09,48,37.50
2010,04,02,09,49,26.20
2010,04,02,09,50,30.80
2010,04,02,09,51,37.30
2010,04,02,09,52,28.40
2010,04,02,09,53,34.60
2010,04,02,09,54,26.30
2010,04,02,09,55,21.80
2010,04,02,09,56,32.80
2010,04,02,09,57,37.90
2010,04,02,09,58,27.90
2010,04,02,09,59,29.00
2010,04,02,10,00,32.20
2010,04,02,10,01,34.50
2010,04,02,10,02,31.30
2010,04,02,10,03,24.60
2010,04,02,10,04,38.70
2010,04,02,10,05,37.80
2010,04,02,10,06,32.60
2010,04,02,10,07,36.00
2010,04,02,10,08,34.00
2010,04,02,10,09,24.20
2010,04,02,10,10,40.40
2010,04,02,10,11,30.60
2010,04,02,10,12,27.10
2010,04,02,10,13,37.90
2010,04,02,10,14,33.10
2010,04,02,10,15,25.20
2010,04,02,10,16,19.60
2010,04,02,10,17,27.90
2010,04,02,10,18,21.90
2010,04,02,10,19,37.50
2010,04,02,10,20,27.20
2010,04,02,10,21,26.10
2010,04,02,10,22,36.30
2010,04,02,10,23,31.00
2010,04,02,10,24,36.30
2010,04,02,10,25,31.50
2010,04,02,10,26,30.20
2010,04,02,10,27,41.30
2010,04,02,10,28,35.80
2010,04,02,10,29,29.10
2010,04,02,10,30,22.90
2010,04,02,10,31,26.00
2010,04,02,10,32,22.60
2010,04,02,10,33,15.10
2010,04,02,10,34,31.50
2010,04,02,10,35,24.00
2010,04,02,10,36,25.00
2010,04,02,10,37,30.70
2010,04,02,10,38,31.90
2010,04,02,10,39,32.50
2010,04,02,10,40,26.30
2010,04,02,10,41,30.00
2010,04,02,10,42,21.40
2010,04,02,10,43,41.30
2010,04,02,10,44,36.80
2010,04,02,10,45,35.60
2010,04,02,10,46,34.60
2010,04,02,10,47,29.10
2010,04,02,10,48,21.90
2010,04,02,10,49,36.70
2010,04,02,10,50,39.80
2010,04,02,10,51,28.30
2010,04,02,10,52,34.00
2010,04,02,10,53,32.90
2010,04,02,10,54,28.50
2010,04,02,10,55,29.20
2010,04,02,10,56,30.80
2010,04,02,10,57,29.20
2010,04,02,10,58,31.90
2010,04,02,10,59,32.00
2010,04,02,11,00,38.00
2010,04,02,11,01,32.60
2010,04,02,11,02,29.60
2010,04,02,11,03,24.30
2010,04,02,11,04,41.60
2010,04,02,11,05,39.00
2010,04,02,11,06,41.10
2010,04,02,11,07,32.00
2010,04,02,11,08,28.90
2010,04,02,11,09,33.70
2010,04,02,11,10,27.20
2010,04,02,11,11,24.40
2010,04,02,11,12,43.60
2010,04,02,11,13,37.40
2010,04,02,11,14,34.10
2010,04,02,11,15,36.30
2010,04,02,11,16,37.20
2010,04,02,11,17,38.90
2010,04,02,11,18,22.90
2010,04,02,11,19,28.70
2010,04,02,11,20,29.40
2010,04,02,11,21,34.90
2010,04,02,11,22,25.60
2010,04,02,11,23,29.90
2010,04,02,11,24,31.60
2010,04,02,11,25,30.70
2010,04,02,11,26,40.70
2010,04,02,11,27,35.20
2010,04,02,11,28,32.40
2010,04,02,11,29,35.70
2010,04,02,11,30,36.60
2010,04,02,11,31,16.30
2010,04,02,11,32,20.50
2010,04,02,11,33,34.30
2010,04,02,11,34,41.70
2010,04,02,11,35,31.30
2010,04,02,11,36,31.80
2010,04,02,11,37,25.50
2010,04,02,11,38,34.80
2010,04,02,11,39,34.60
2010,04,02,11,40,35.70
2010,04,02,11,41,32.00
2010,04,02,11,42,24.10
2010,04,02,11,43,30.60
2010,04,02,11,44,31.30
2010,04,02,11,45,32.70
2010,04,02,11,46,25.60
2010,04,02,11,47,34.00
2010,04,02,11,48,35.70
2010,04,02,11,49,33.40
2010,04,02,11,50,37.40
2010,04,02,11,51,32.00
2010,04,02,11,52,32.40
2010,04,02,11,53,30.70
2010,04,02,11,54,33.80
2010,04,02,11,55,31.80
2010,04,02,11,56,27.40
2010,04,02,11,57,37.10
2010,04,02,11,58,31.50
2010,04,02,11,59,31.70
2010,04,02,12,00,30.10
2010,04,02,12,01,39.00
2010,04,02,12,02,34.00
2010,04,02,12,03,24.60
2010,04,02,12,04,37.80
2010,04,02,12,05,32.20
2010,04,02,12,06,31.20
2010,04,02,12,07,24.40
2010,04,02,12,08,34.70
2010,04,02,12,09,25.30
2010,04,02,12,10,31.90
2010,04,02,12,11,31.60
2010,04,02,12,12,34.90
2010,04,02,12,13,34.20
2010,04,02,12,14,30.70
2010,04,02,12,15,35.50
2010,04,02,12,16,24.90
2010,04,02,12,17,28.20
2010,04,02,12,18,26.80
2010,04,02,12,19,26.80
2010,04,02,12,20,30.40
2010,04,02,12,21,32.30
2010,04,02,12,22,21.20
2010,04,02,12,23,32.90
2010,04,02,12,24,32.90
2010,04,02,12,25,27.70
2010,04,02,12,26,21.40
2010,04,02,12,27,19.90
2010,04,02,12,28,26.90
2010,04,02,12,29,29.30
2010,04,02,12,30,28.10
2010,04,02,12,31,23.00
2010,04,02,12,32,27.40
2010,04,02,12,33,31.60
2010,04,02,12,34,32.80
2010,04,02,12,35,16.80
2010,04,02,12,36,29.10
2010,04,02,12,37,14.20
2010,04,02,12,38,22.30
2010,04,02,12,39,25.50
2010,04,02,12,40,28.60
2010,04,02,12,41,26.90
2010,04,02,12,42,25.50
2010,04,02,12,43,24.60
2010,04,02,12,44,27.80
2010,04,02,12,45,29.00
2010,04,02,12,46,25.20
2010,04,02,12,47,26.90
2010,04,02,12,48,18.60
2010,04,02,12,49,19.60
2010,04,02,12,50,29.20
2010,04,02,12,51,25.80
2010,04,02,12,52,23.30
2010,04,02,12,53,27.00
2010,04,02,12,54,28.70
2010,04,02,12,55,21.20
2010,04,02,12,56,19.00
2010,04,02,12,57,25.70
2010,04,02,12,58,19.20
2010,04,02,12,59,24.30
2010,04,02,13,00,19.30
2010,04,02,13,01,25.10
2010,04,02,13,02,16.50
2010,04,02,13,03,20.20
2010,04,02,13,04,28.10
2010,04,02,13,05,13.90
2010,04,02,13,06,17.90
2010,04,02,13,07,17.10
2010,04,02,13,08,19.50
2010,04,02,13,09,18.20
2010,04,02,13,10,16.10
2010,04,02,13,11,18.00
2010,04,02,13,12,13.60
2010,04,02,13,13,21.30
2010,04,02,13,14,26.80
2010,04,02,13,15,22.80
2010,04,02,13,16,19.70
2010,04,02,13,17,18.20
2010,04,02,13,18,24.60
2010,04,02,13,19,27.00
2010,04,02,13,20,25.10
2010,04,02,13,21,25.30
2010,04,02,13,22,31.20
2010,04,02,13,23,28.40
2010,04,02,13,24,17.70
2010,04,02,13,25,16.10
2010,04,02,13,26,26.70
2010,04,02,13,27,29.00
2010,04,02,13,28,18.20
2010,04,02,13,29,22.60
2010,04,02,13,30,27.00
2010,04,02,13,31,25.80
2010,04,02,13,32,23.00
2010,04,02,13,33,23.60
2010,04,02,13,34,21.60
2010,04,02,13,35,25.60
2010,04,02,13,36,32.70
2010,04,02,13,37,27.30
2010,04,02,13,38,10.70
2010,04,02,13,39,19.90
2010,04,02,13,40,21.90
2010,04,02,13,41,19.30
2010,04,02,13,42,26.10
2010,04,02,13,43,21.40
2010,04,02,13,44,26.90
2010,04,02,13,45,27.80
2010,04,02,13,46,17.40
2010,04,02,13,47,26.90
2010,04,02,13,48,21.60
2010,04,02,13,49,19.70
2010,04,02,13,50,19.80
2010,04,02,13,51,18.10
2010,04,02,13,52,21.00
2010,04,02,13,53,23.40
2010,04,02,13,54,23.70
2010,04,02,13,55,21.80
2010,04,02,13,56,18.20
2010,04,02,13,57,22.80
2010,04,02,13,58,13.60
2010,04,02,13,59,23.20
2010,04,02,14,00,15.00
2010,04,02,14,01,23.50
2010,04,02,14,02,22.30
2010,04,02,14,03,26.20
2010,04,02,14,04,21.20
2010,04,02,14,05,25.60
2010,04,02,14,06,23.80
2010,04,02,14,07,19.70
2010,04,02,14,08,23.30
2010,04,02,14,09,17.60
2010,04,02,14,10,29.00
2010,04,02,14,11,16.40
2010,04,02,14,12,10.90
2010,04,02,14,13,25.20
2010,04,02,14,14,16.00
2010,04,02,14,15,12.00
2010,04,02,14,16,13.10
2010,04,02,14,17,19.60
2010,04,02,14,18,21.90
2010,04,02,14,19,19.60
2010,04,02,14,20,20.40
2010,04,02,14,21,21.00
2010,04,02,14,22,27.50
2010,04,02,14,23,25.70
2010,04,02,14,24,17.10
2010,04,02,14,25,13.80
2010,04,02,14,26,21.20
2010,04,02,14,27,13.50
2010,04,02,14,28,16.70
2010,04,02,14,29,22.90
2010,04,02,14,30,23.20
2010,04,02,14,31,18.20
2010,04,02,14,32,16.10
2010,04,02,14,33,14.30
2010,04,02,14,34,22.90
2010,04,02,14,35,29.60
2010,04,02,14,36,25.20
2010,04,02,14,37,24.20
2010,04,02,14,38,25.00
2010,04,02,14,39,22.50
2010,04,02,14,40,18.30
2010,04,02,14,41,15.40
2010,04,02,14,42,14.10
2010,04,02,14,43,19.60
2010,04,02,14,44,23.20
2010,04,02,14,45,20.50
2010,04,02,14,46,18.20
2010,04,02,14,47,20.10
2010,04,02,14,48,20.40
2010,04,02,14,49,20.20
2010,04,02,14,50,21.50
2010,04,02,14,51,26.90
2010,04,02,14,52,26.70
2010,04,02,14,53,26.00
2010,04,02,14,54,22.80
2010,04,02,14,55,25.10
2010,04,02,14,56,23.80
2010,04,02,14,57,23.40
2010,04,02,14,58,21.40
2010,04,02,14,59,25.70
2010,04,02,15,00,24.30
2010,04,02,15,01,20.50
2010,04,02,15,02,21.20
2010,04,02,15,03,29.10
2010,04,02,15,04,23.00
2010,04,02,15,05,29.20
2010,04,02,15,06,30.70
2010,04,02,15,07,26.10
2010,04,02,15,08,23.00
2010,04,02,15,09,31.00
2010,04,02,15,10,27.10
2010,04,02,15,11,23.50
2010,04,02,15,12,26.80
2010,04,02,15,13,26.90
2010,04,02,15,14,33.50
2010,04,02,15,15,25.50
2010,04,02,15,16,24.60
2010,04,02,15,17,26.40
2010,04,02,15,18,22.10
2010,04,02,15,19,24.60
2010,04,02,15,20,20.20
2010,04,02,15,21,27.80
2010,04,02,15,22,26.10
2010,04,02,15,23,21.90
2010,04,02,15,24,32.10
2010,04,02,15,25,25.60
2010,04,02,15,26,23.90
2010,04,02,15,27,25.70
2010,04,02,15,28,31.20
2010,04,02,15,29,27.00
2010,04,02,15,30,27.50
2010,04,02,15,31,26.80
2010,04,02,15,32,24.60
2010,04,02,15,33,28.40
2010,04,02,15,34,24.60
2010,04,02,15,35,22.50
2010,04,02,15,36,19.50
2010,04,02,15,37,21.60
2010,04,02,15,38,21.20
2010,04,02,15,39,20.20
2010,04,02,15,40,23.10
2010,04,02,15,41,21.70
2010,04,02,15,42,22.60
2010,04,02,15,43,18.90
2010,04,02,15,44,22.90
2010,04,02,15,45,24.80
2010,04,02,15,46,19.10
2010,04,02,15,47,12.20
2010,04,02,15,48,17.40
2010,04,02,15,49,14.90
2010,04,02,15,50,14.10
2010,04,02,15,51,15.70
2010,04,02,15,52,17.50
2010,04,02,15,53,21.80
2010,04,02,15,54,17.50
2010,04,02,15,55,25.50
2010,04,02,15,56,22.50
2010,04,02,15,57,19.50
2010,04,02,15,58,25.30
2010,04,02,15,59,23.20
2010,04,02,16,00,20.90
2010,04,02,16,01,22.30
2010,04,02,16,02,18.70
2010,04,02,16,03,18.80
2010,04,02,16,04,21.90
2010,04,02,16,05,20.80
2010,04,02,16,06,21.20
2010,04,02,16,07,13.80
2010,04,02,16,08,18.50
2010,04,02,16,09,18.70
2010,04,02,16,10,12.80
2010,04,02,16,11,20.80
2010,04,02,16,12,19.70
2010,04,02,16,13,16.40
2010,04,02,16,14,12.60
2010,04,02,16,15,15.60
2010,04,02,16,16,14.60
2010,04,02,16,17,15.20
2010,04,02,16,18,12.50
2010,04,02,16,19,14.90
2010,04,02,16,20,11.70
2010,04,02,16,21,13.10
2010,04,02,16,22,22.20
2010,04,02,16,23,19.90
2010,04,02,16,24,22.20
2010,04,02,16,25,21.70
2010,04,02,16,26,20.60
2010,04,02,16,27,13.40
2010,04,02,16,28,14.80
2010,04,02,16,29,11.30
2010,04,02,16,30,19.30
2010,04,02,16,31,16.20
2010,04,02,16,32,17.00
2010,04,02,16,33,22.80
2010,04,02,16,34,18.00
2010,04,02,16,35,24.10
2010,04,02,16,36,21.00
2010,04,02,16,37,20.90
2010,04,02,16,38,15.80
2010,04,02,16,39,15.80
2010,04,02,16,40,12.00
2010,04,02,16,41,21.20
2010,04,02,16,42,16.00
2010,04,02,16,43,17.40
2010,04,02,16,44,26.30
2010,04,02,16,45,19.10
2010,04,02,16,46,17.80
2010,04,02,16,47,16.20
2010,04,02,16,48,15.60
2010,04,02,16,49,13.40
2010,04,02,16,50,16.10
2010,04,02,16,51,14.50
2010,04,02,16,52,16.10
2010,04,02,16,53,14.70
2010,04,02,16,54,11.10
2010,04,02,16,55,13.80
2010,04,02,16,56,17.90
2010,04,02,16,57,15.00
2010,04,02,16,58,14.20
2010,04,02,16,59,15.90
2010,04,02,17,00,13.10
2010,04,02,17,01,13.70
2010,04,02,17,02,16.70
2010,04,02,17,03,16.80
2010,04,02,17,04,18.20
2010,04,02,17,05,20.30
2010,04,02,17,06,12.80
2010,04,02,17,07,17.20
2010,04,02,17,08,27.30
2010,04,02,17,09,19.60
2010,04,02,17,10,18.60
2010,04,02,17,11,20.60
2010,04,02,17,12,22.60
2010,04,02,17,13,23.00
2010,04,02,17,14,19.30
2010,04,02,17,15,17.10
2010,04,02,17,16,20.60
2010,04,02,17,17,15.90
2010,04,02,17,18,19.30
2010,04,02,17,19,17.80
2010,04,02,17,20,17.10
2010,04,02,17,21,16.40
2010,04,02,17,22,12.30
2010,04,02,17,23,14.50